[[{"header":{"parameterUnit":"m.s-1","parameterCategory":1,"la1":30.2991,"la2":30.254,"lo1":-89.0895,"lo2":-89.0444,"dy":0.0017,"dx":0.0017,"nx":28,"ny":28,"refTime":"2025-08-03T03:00:00:Z","depth":0,"parameterNumber":2,"parameterNumberName":"U-component_of_WINDS"},"data":[0,0,0,0,0,0,0,0,0,0,0,0,0,0,0,0,0,0,0,0,0,0,0,0,0,0,0,0,0,0,0,0,0,0,0,0,0,0,0,0,0,0,0,0,0,0,0,0,0,0,0,0,0,0,0,0,0,0,-1.2374,-1.2375,0,-1.2429,-1.243,-1.243,-1.2468,-1.2468,-1.2469,-1.2469,-1.2523,-1.2524,-1.2525,0,0,0,0,0,0,0,0,0,0,0,0,0,-1.23,-1.2302,-1.2374,-1.2375,-1.2375,-1.2429,-1.243,-1.243,-1.2468,-1.2468,-1.2469,-1.2469,-1.2523,-1.2524,-1.2526,0,0,0,0,0,0,0,0,0,0,0,0,0,-1.2341,-1.2302,-1.2374,-1.2401,-1.2404,-1.2429,-1.243,-1.2431,-1.2468,-1.2468,-1.2469,-1.2469,-1.2522,-1.2524,-1.2526,-1.2528,0,0,-1.2531,-1.2532,0,0,0,0,0,0,0,0,-1.2339,-1.2344,-1.2396,-1.2399,-1.2402,-1.2442,-1.2424,-1.2463,-1.2468,-1.2443,-1.2469,-1.2469,-1.2496,-1.25,-1.2509,-1.253,-1.2533,-1.2531,-1.2532,-1.2533,-1.2534,0,0,0,0,0,0,0,-1.2336,-1.2342,-1.2396,-1.2397,-1.2401,-1.241,-1.2416,-1.2431,-1.2466,-1.2446,-1.2449,-1.2455,-1.2497,-1.2507,-1.2511,-1.2534,-1.2531,-1.2533,-1.2534,-1.2535,-1.2561,-1.256,0,0,0,0,0,0,-1.2329,-1.2339,-1.2394,-1.2397,-1.2371,-1.2411,-1.2418,-1.2429,-1.2466,-1.2473,-1.2454,-1.2456,-1.2504,-1.2508,-1.2513,-1.2518,-1.2533,-1.2535,-1.2536,-1.2561,-1.256,-1.256,0,0,0,0,0,0,-1.2328,-1.2334,-1.2392,-1.2369,-1.2377,-1.2411,-1.2424,-1.243,-1.244,-1.2473,-1.2479,-1.2458,-1.2504,-1.251,-1.2524,-1.252,-1.2536,-1.2537,-1.2561,-1.2561,-1.256,-1.2528,0,0,0,0,0,0,-1.2325,-1.2333,-1.2334,-1.2369,-1.2378,-1.2402,-1.2424,-1.2431,-1.2443,-1.2446,-1.2478,-1.2484,-1.2505,-1.2521,-1.2526,-1.2523,-1.2539,-1.2562,-1.2561,-1.256,-1.2529,-1.2526,-1.2524,0,0,0,0,0,-1.2323,-1.2322,-1.2334,-1.2341,-1.2381,-1.2402,-1.2407,-1.2433,-1.2442,-1.2444,-1.2465,-1.2483,-1.252,-1.2522,-1.2528,-1.2525,-1.2562,-1.2561,-1.256,-1.2531,-1.2527,-1.2524,0,0,0,0,0,0,-1.2285,-1.2327,-1.2341,-1.2352,-1.2373,-1.2409,-1.2411,-1.2428,-1.2447,-1.2449,-1.2479,-1.2486,-1.2497,-1.2513,-1.2515,-1.253,-1.2543,-1.2544,-1.2519,-1.2515,-1.2513,-1.2508,-1.254,0,0,0,0,0,-1.2278,-1.2293,-1.2329,-1.2335,-1.2345,-1.2376,-1.2387,-1.2405,-1.2428,-1.2437,-1.2459,-1.248,-1.2497,-1.2507,-1.2525,-1.2533,-1.254,-1.2534,-1.2531,-1.2528,-1.2527,-1.2533,-1.2531,-1.2557,-1.2557,-1.2557,0,0,-1.2264,-1.2289,-1.2296,-1.2328,-1.2347,-1.2361,-1.2383,-1.2397,-1.2407,-1.2438,-1.2453,-1.2471,-1.2497,-1.2508,-1.2514,-1.2521,-1.2522,-1.2527,-1.2525,-1.2525,-1.2532,-1.2529,-1.2527,-1.2557,-1.2557,-1.2557,0,0,-1.2244,-1.2265,-1.2273,-1.2292,-1.232,-1.2341,-1.2343,-1.2376,-1.2389,-1.2405,-1.2429,-1.2442,-1.247,-1.2487,-1.25,-1.2489,-1.2506,-1.2494,-1.2478,-1.2483,-1.2481,-1.2479,-1.2475,-1.2473,-1.2494,-1.2494,-1.2494,0,-1.2222,-1.2245,-1.2274,-1.2287,-1.23,-1.2331,-1.2338,-1.2355,-1.2387,-1.2396,-1.2404,-1.2441,-1.246,-1.2476,-1.2474,-1.2483,-1.2486,-1.249,-1.2479,-1.2478,-1.2477,-1.2473,-1.2471,-1.2492,-1.2492,-1.2492,-1.2493,0,-1.2216,-1.2232,-1.2234,-1.2266,-1.228,-1.229,-1.232,-1.2331,-1.2349,-1.2369,-1.2385,-1.241,-1.2433,-1.2438,-1.2455,-1.2456,-1.246,-1.2474,-1.2487,-1.2472,-1.2469,-1.2468,-1.249,-1.249,-1.2491,-1.2491,0,0,-1.2172,-1.2222,-1.2222,-1.2237,-1.2272,-1.2284,-1.2296,-1.2319,-1.2328,-1.235,-1.236,-1.2384,-1.2397,-1.2411,-1.2431,-1.2436,-1.2425,-1.2449,-1.245,-1.2443,-1.2429,-1.2417,-1.2415,-1.2437,-1.2437,-1.2437,-1.2426,0,-1.2157,-1.218,-1.2208,-1.2221,-1.2236,-1.2266,-1.2276,-1.2299,-1.2318,-1.2333,-1.2355,-1.2371,-1.2388,-1.2397,-1.2403,-1.2425,-1.2423,-1.2427,-1.2447,-1.2447,-1.2438,-1.2414,-1.2401,-1.239,-1.2425,-1.2425,-1.2425,0,-1.2142,-1.2163,-1.2178,-1.2213,-1.222,-1.2229,-1.2253,-1.2268,-1.2294,-1.2308,-1.2325,-1.2346,-1.236,-1.2374,-1.2393,-1.2395,-1.2406,-1.2418,-1.2418,-1.242,-1.2434,-1.2413,-1.2387,-1.2384,-1.2424,-1.2424,-1.2424,0,-1.2107,-1.214,-1.2153,-1.2166,-1.2206,-1.2212,-1.2229,-1.2256,-1.2269,-1.229,-1.2299,-1.2322,-1.2333,-1.2351,-1.2377,-1.2385,-1.2394,-1.241,-1.2406,-1.2405,-1.2404,-1.2404,-1.2378,-1.2413,-1.2413,-1.2413,-1.2413,0,-1.2086,-1.2094,-1.2138,-1.2146,-1.2156,-1.2189,-1.2197,-1.2217,-1.2241,-1.2254,-1.2282,-1.2293,-1.2328,-1.2344,-1.2365,-1.2378,-1.2383,-1.2395,-1.24,-1.2391,-1.239,-1.2397,-1.2398,-1.2413,-1.2413,-1.2413,-1.2413,0,-1.2048,-1.2078,-1.2094,-1.2133,-1.2143,-1.2148,-1.2181,-1.219,-1.2212,-1.2228,-1.2233,-1.2268,-1.2287,-1.2317,-1.2345,-1.2359,-1.2368,-1.2378,-1.2359,-1.2362,-1.2356,-1.2356,-1.2332,-1.2331,-1.2368,-1.2368,-1.2368,0,-1.2031,-1.2038,-1.2078,-1.2089,-1.2105,-1.2122,-1.2136,-1.2169,-1.2182,-1.2214,-1.2219,-1.2241,-1.226,-1.229,-1.2317,-1.2339,-1.2349,-1.234,-1.2352,-1.2344,-1.2348,-1.2346,-1.2347,-1.2335,-1.2335,-1.2334,-1.2334,0,-1.1999,-1.2014,-1.2033,-1.2058,-1.2074,-1.2095,-1.2117,-1.2124,-1.2162,-1.2175,-1.2196,-1.2211,-1.2241,-1.2262,-1.2288,-1.2306,-1.2326,-1.233,-1.233,-1.2321,-1.2309,-1.2314,-1.235,-1.233,-1.2331,-1.2331,-1.2331,-1.2331,-1.197,-1.1978,-1.2008,-1.2028,-1.2049,-1.2069,-1.208,-1.2105,-1.2123,-1.215,-1.2169,-1.2188,-1.2216,-1.2254,-1.2271,-1.2287,-1.2295,-1.2295,-1.2295,-1.2294,-1.2291,-1.2308,-1.2292,-1.2292,-1.2292,-1.2292,-1.2292,0,-1.1938,-1.1959,-1.1978,-1.2009,-1.2026,-1.2045,-1.2071,-1.2083,-1.2101,-1.2125,-1.2144,-1.2169,-1.2191,-1.2221,-1.2245,-1.2252,-1.2262,-1.2257,-1.2256,-1.2259,-1.2282,-1.2279,-1.2248,-1.2248,-1.2248,-1.2248,-1.2248,-1.2248,-1.1923,-1.1937,-1.1957,-1.1982,-1.2003,-1.2023,-1.2036,-1.2056,-1.2076,-1.2102,-1.2121,-1.2141,-1.2168,-1.2194,-1.2215,-1.2224,-1.2231,-1.2223,-1.2234,-1.2254,-1.2258,-1.2261,-1.2259,-1.2224,-1.2224,-1.221,-1.2209,-1.2209]},{"header":{"parameterUnit":"m.s-1","parameterCategory":1,"la1":30.2991,"la2":30.254,"lo1":-89.0895,"lo2":-89.0444,"dy":0.0017,"dx":0.0017,"nx":28,"ny":28,"refTime":"2025-08-03T03:00:00:Z","depth":0,"parameterNumber":3,"parameterNumberName":"V-component_of_WINDS"},"data":[0,0,0,0,0,0,0,0,0,0,0,0,0,0,0,0,0,0,0,0,0,0,0,0,0,0,0,0,0,0,0,0,0,0,0,0,0,0,0,0,0,0,0,0,0,0,0,0,0,0,0,0,0,0,0,0,0,0,1.8,1.7999,0,1.7945,1.7944,1.7944,1.7942,1.7942,1.7943,1.7944,1.7881,1.7879,1.7876,0,0,0,0,0,0,0,0,0,0,0,0,0,1.8096,1.8094,1.8,1.7999,1.7999,1.7945,1.7944,1.7944,1.7941,1.7942,1.7943,1.7944,1.7882,1.7879,1.7876,0,0,0,0,0,0,0,0,0,0,0,0,0,1.8049,1.8094,1.8,1.7991,1.799,1.7945,1.7944,1.7943,1.7941,1.7942,1.7943,1.7944,1.7882,1.7879,1.7876,1.7834,0,0,1.7865,1.7864,0,0,0,0,0,0,0,0,1.8051,1.8045,1.7993,1.7992,1.799,1.7951,1.7955,1.7907,1.7941,1.796,1.7944,1.7945,1.7903,1.7898,1.7885,1.7831,1.7829,1.7865,1.7863,1.7861,1.786,0,0,0,0,0,0,0,1.8055,1.8047,1.7978,1.7992,1.7991,1.7988,1.7982,1.7946,1.7926,1.7958,1.7958,1.7952,1.7902,1.7889,1.7884,1.7828,1.7865,1.7862,1.786,1.7858,1.7734,1.7733,0,0,0,0,0,0,1.8061,1.805,1.798,1.7976,1.8024,1.7985,1.7979,1.7963,1.7927,1.7922,1.7951,1.7952,1.7894,1.7888,1.7881,1.7829,1.7861,1.7858,1.7856,1.7736,1.7734,1.7733,0,0,0,0,0,0,1.8063,1.8054,1.7982,1.8013,1.8004,1.7982,1.7964,1.7961,1.7947,1.7921,1.7917,1.7941,1.7894,1.7886,1.7846,1.7827,1.7856,1.7853,1.7737,1.7735,1.7733,1.7725,0,0,0,0,0,0,1.8065,1.8055,1.8041,1.8013,1.8002,1.795,1.7963,1.7959,1.7942,1.7943,1.7911,1.7906,1.7895,1.7851,1.7843,1.7823,1.7851,1.7739,1.7736,1.7734,1.7727,1.7723,1.772,0,0,0,0,0,1.8069,1.804,1.804,1.8032,1.7984,1.7949,1.7942,1.7931,1.7941,1.7925,1.7908,1.7907,1.7831,1.7847,1.7837,1.7816,1.774,1.7737,1.7734,1.7729,1.7724,1.772,0,0,0,0,0,0,1.8064,1.8036,1.8036,1.7998,1.7976,1.7948,1.7928,1.7927,1.79,1.7902,1.7887,1.788,1.784,1.7824,1.7843,1.7773,1.7786,1.7781,1.7785,1.778,1.7777,1.7781,1.7848,0,0,0,0,0,1.8059,1.8034,1.801,1.7978,1.7967,1.795,1.7934,1.7927,1.7903,1.7893,1.7873,1.7848,1.7818,1.7798,1.7769,1.7725,1.7716,1.7705,1.7702,1.7699,1.7695,1.7668,1.7662,1.7724,1.7724,1.7724,0,0,1.8047,1.8029,1.8014,1.7977,1.7959,1.7932,1.7942,1.7913,1.7891,1.7888,1.7849,1.7833,1.7804,1.7761,1.7741,1.7746,1.7676,1.7696,1.7694,1.7691,1.7665,1.7659,1.7654,1.7722,1.7722,1.7722,0,0,1.8012,1.7996,1.7967,1.795,1.7923,1.7911,1.7904,1.7877,1.7867,1.7828,1.7825,1.7798,1.7747,1.7726,1.7708,1.7664,1.7661,1.7654,1.7636,1.761,1.7605,1.7601,1.7583,1.7577,1.765,1.765,1.765,0,1.8,1.7961,1.7952,1.7923,1.7906,1.7903,1.7873,1.7855,1.7819,1.7807,1.7814,1.775,1.7729,1.7681,1.767,1.7656,1.7646,1.7658,1.7607,1.7602,1.7598,1.7581,1.7575,1.7649,1.765,1.765,1.765,0,1.7946,1.7919,1.7899,1.7867,1.7847,1.7817,1.7802,1.7782,1.7777,1.7764,1.7723,1.7699,1.7665,1.7652,1.7647,1.7602,1.7606,1.761,1.7623,1.7592,1.7575,1.7569,1.7648,1.7649,1.7649,1.7649,0,0,1.7906,1.787,1.7863,1.7847,1.7818,1.7795,1.7764,1.7732,1.7715,1.769,1.7662,1.7619,1.7622,1.7603,1.7594,1.7571,1.7535,1.7578,1.7577,1.757,1.7482,1.7479,1.7472,1.7534,1.7533,1.7532,1.7485,0,1.7867,1.7814,1.7805,1.7758,1.7731,1.7728,1.77,1.7677,1.7664,1.7637,1.7621,1.759,1.7598,1.7586,1.7564,1.7545,1.7517,1.7548,1.7505,1.7504,1.7512,1.7464,1.746,1.7417,1.7478,1.7477,1.7476,0,1.7814,1.779,1.774,1.7713,1.7701,1.7677,1.7647,1.7622,1.7595,1.7587,1.7564,1.7558,1.7523,1.7538,1.7487,1.7508,1.749,1.7478,1.7476,1.7471,1.7488,1.7456,1.7403,1.7396,1.7467,1.7467,1.7468,0,1.7788,1.7743,1.7707,1.7694,1.7662,1.7645,1.763,1.7605,1.7586,1.7558,1.7545,1.7513,1.7495,1.7469,1.7453,1.7465,1.7403,1.7417,1.7393,1.7393,1.7379,1.738,1.7321,1.7369,1.7369,1.7369,1.737,0,1.7744,1.7714,1.7695,1.7673,1.7638,1.7626,1.7591,1.7576,1.7553,1.7526,1.7521,1.7495,1.7476,1.7447,1.7434,1.7393,1.7385,1.7376,1.7372,1.7376,1.7377,1.7363,1.7365,1.7368,1.7368,1.7368,1.7369,0,1.7709,1.7696,1.7657,1.763,1.7622,1.7597,1.7573,1.7549,1.7536,1.7502,1.7493,1.747,1.7435,1.7418,1.7373,1.7365,1.7318,1.7317,1.7328,1.7327,1.7303,1.7305,1.7232,1.7221,1.7278,1.7277,1.7277,0,1.7682,1.7659,1.7629,1.7612,1.7598,1.7569,1.755,1.7537,1.7517,1.7484,1.7464,1.743,1.7402,1.7346,1.7324,1.7289,1.7287,1.7264,1.7281,1.7285,1.7285,1.7286,1.7282,1.726,1.726,1.7259,1.7259,0,1.7634,1.7629,1.7603,1.7574,1.7552,1.7528,1.7504,1.7489,1.7472,1.7449,1.7415,1.7393,1.7349,1.7313,1.7277,1.7259,1.7255,1.7254,1.7246,1.7248,1.7255,1.725,1.7318,1.7255,1.7255,1.7256,1.7256,1.7256,1.7601,1.758,1.7556,1.7527,1.7508,1.7485,1.7462,1.7446,1.7418,1.7382,1.7376,1.7338,1.731,1.7262,1.7242,1.7211,1.7216,1.7205,1.7202,1.7199,1.7198,1.7261,1.7205,1.7205,1.7205,1.7205,1.7205,0,1.7552,1.7537,1.751,1.7478,1.7454,1.7455,1.7428,1.7407,1.7375,1.735,1.7323,1.7282,1.7248,1.7223,1.7187,1.7167,1.7164,1.7158,1.7158,1.7154,1.7196,1.7206,1.7161,1.7161,1.7161,1.7161,1.7161,1.7161,1.7524,1.7488,1.7479,1.7432,1.7416,1.7381,1.7366,1.7344,1.7324,1.7279,1.7252,1.7237,1.7211,1.7173,1.714,1.7134,1.712,1.7114,1.7107,1.7146,1.7151,1.7156,1.7165,1.7111,1.7111,1.7067,1.7066,1.7066]}]]